Manchester, NH

8:38 PM EDT on July 29, 2016 (GMT -0400)
Manchester

Weather History for KMHT - January, 2013

Change the Weather History Date:

Tuesday, January 1, 2013

  Actual Average Record
Temperature  
Mean Temperature 26 °F 26 °F  
Max Temperature 35 °F 34 °F 55 °F (2011)
Min Temperature 15 °F 17 °F -22 °F (1964)
Degree Days  
Heating Degree Days 39    
Cooling Degree Days 0    
Moisture  
Dew Point 12 °F    
Average Humidity 52    
Maximum Humidity 70    
Minimum Humidity 40    
Precipitation  
Precipitation 0.00 in 0.13 in 0.94 in (1973)
Month to date precipitation 0.13  
Year to date precipitation 0.13  
Snow  
Snow 0.00 in - - ()
Month to date snowfall  
Since 1 July snowfall  
Snow Depth 9.00 in    
Sea Level Pressure  
Sea Level Pressure 29.81 in    
Wind  
Wind Speed 9 mph (West)    
Max Wind Speed 20 mph    
Max Gust Speed 31 mph    
Visibility 10 miles    
Events      
T = Trace of Precipitation, MM = Missing Value Source: NWS Daily Summary

Daily Weather History Graph

Daily Weather History Graph

Search for Another Location

Airport or City:

Trip Planner

Search our weather history database for the weather conditions in past years. The results will help you decide how hot, cold, wet, or windy it might be!

Date:

Astronomy

Jan. 01, 2013 Rise Set
Actual Time 7:16 AM EST 4:22 PM EST
Civil Twilight 6:44 AM EST 4:54 PM EST
Nautical Twilight 6:09 AM EST 5:30 PM EST
Astronomical Twilight 5:34 AM EST 6:04 PM EST
Moon 8:57 PM EST (1/1) 9:21 AM EST (1/1)
Length of Visible Light 10h 09m
Length of Day
9h 05m
Waning Gibbous, 83% of the Moon is Illuminated
Jan 1
Waning Gibbous
Jan 4
Last Quarter
Jan 11
New
Jan 18
First Quarter
Jan 26
Full

Hourly Weather History & Observations

Time (EST) Temp. Windchill Dew Point Humidity Pressure Visibility Wind Dir Wind Speed Gust Speed Precip Events Conditions
12:53 AM 30.9 °F 24.3 °F 19.9 °F 64% 29.75 in 10.0 mi SSW 6.9 mph - N/A   Overcast
1:53 AM 30.9 °F 23.5 °F 21.0 °F 67% 29.75 in 10.0 mi South 8.1 mph - N/A   Overcast
2:53 AM 33.1 °F 26.9 °F 21.9 °F 64% 29.74 in 10.0 mi SSW 6.9 mph - N/A   Overcast
3:53 AM 33.1 °F 27.7 °F 23.0 °F 66% 29.72 in 10.0 mi SSW 5.8 mph - N/A   Overcast
4:53 AM 33.1 °F 26.9 °F 24.1 °F 70% 29.72 in 10.0 mi South 6.9 mph - N/A   Overcast
5:53 AM 33.8 °F 28.6 °F 24.8 °F 70% 29.68 in 10.0 mi SE 5.8 mph - N/A   Overcast
6:53 AM 33.8 °F 29.6 °F 23.0 °F 65% 29.70 in 10.0 mi WSW 4.6 mph - N/A   Overcast
7:53 AM 35.1 °F 27.4 °F 18.0 °F 50% 29.78 in 10.0 mi WNW 10.4 mph 19.6 mph N/A   Scattered Clouds
8:53 AM 34.0 °F 26.6 °F 14.0 °F 44% 29.78 in 10.0 mi WNW 9.2 mph 19.6 mph N/A   Scattered Clouds
9:53 AM 32.0 °F 21.6 °F 12.9 °F 45% 29.81 in 10.0 mi WNW 15.0 mph 26.5 mph N/A   Scattered Clouds
10:53 AM 32.0 °F 20.1 °F 10.0 °F 40% 29.81 in 10.0 mi WNW 19.6 mph 31.1 mph N/A   Partly Cloudy
11:53 AM 30.9 °F 21.2 °F 10.9 °F 43% 29.81 in 10.0 mi West 12.7 mph 26.5 mph N/A   Partly Cloudy
12:53 PM 30.2 °F 19.3 °F 10.4 °F 44% 29.73 in 10.0 mi NW 15.0 mph - N/A   Partly Cloudy
1:53 PM 30.9 °F 20.7 °F 10.0 °F 42% 29.78 in 10.0 mi NW 13.8 mph 23.0 mph N/A   Partly Cloudy
2:53 PM 30.0 °F 19.5 °F 10.0 °F 43% 29.79 in 10.0 mi NW 13.8 mph 21.9 mph N/A   Partly Cloudy
3:53 PM 28.0 °F 17.5 °F 10.0 °F 47% 29.81 in 10.0 mi West 12.7 mph 21.9 mph N/A   Partly Cloudy
4:53 PM 26.1 °F 18.4 °F 7.0 °F 44% 29.85 in 10.0 mi NW 6.9 mph 19.6 mph N/A   Partly Cloudy
5:53 PM 24.1 °F 12.5 °F 3.9 °F 42% 29.86 in 10.0 mi WNW 12.7 mph 23.0 mph N/A   Clear
6:53 PM 23.0 °F 11.1 °F 3.0 °F 42% 29.91 in 10.0 mi NW 12.7 mph 18.4 mph N/A   Clear
7:53 PM 21.0 °F 11.4 °F 3.0 °F 46% 29.93 in 10.0 mi WNW 8.1 mph - N/A   Clear
8:53 PM 19.9 °F 9.3 °F 3.0 °F 48% 29.93 in 10.0 mi WNW 9.2 mph 18.4 mph N/A   Clear
9:53 PM 18.0 °F 6.9 °F 1.9 °F 50% 29.94 in 10.0 mi WNW 9.2 mph - N/A   Clear
10:53 PM 17.1 °F 5.8 °F 1.0 °F 50% 29.96 in 10.0 mi WNW 9.2 mph - N/A   Clear
11:53 PM 15.1 °F 7.7 °F 1.0 °F 54% 29.96 in 10.0 mi WNW 4.6 mph - N/A   Clear